,,,PA_Meas_PMT16A,,PR_Meas_QMR101_102,,RH_Meas_QMH101,,SR_Meas_QMS101,,TA_Meas_QMH101,,GenWind,,GenWind,
date,time,status,PA,status,PR,status,RH,status,SR,status,TA,status,DirAvg,status,SpdAvg,
2011-06-25, 00:00:05,VALID,1004.7,VALID,0,INVALID,153.516,VALID,0.100563,VALID,25.2397,VALID,349,VALID,0,
2011-06-25, 00:01:05,VALID,1004.7,VALID,0,INVALID,163.578,VALID,0.100563,VALID,25.1794,VALID,349,VALID,0,
2011-06-25, 00:02:05,VALID,1004.68,VALID,0,INVALID,163.624,VALID,0.100563,VALID,25.1813,VALID,336,VALID,0,
2011-06-25, 00:03:05,VALID,1004.66,VALID,0,INVALID,163.662,VALID,0,VALID,25.1423,VALID,351,VALID,0,
2011-06-25, 00:04:05,VALID,1004.69,VALID,0,INVALID,163.662,VALID,0.100563,VALID,25.1015,VALID,358,VALID,0,
2011-06-25, 00:05:05,VALID,1004.69,VALID,0,INVALID,163.678,VALID,0.100563,VALID,25.1034,VALID,346,VALID,0,
2011-06-25, 00:06:05,VALID,1004.65,VALID,0,INVALID,163.678,VALID,0.100563,VALID,25.082,VALID,351,VALID,0,
2011-06-25, 00:07:05,VALID,1004.63,VALID,0,INVALID,163.655,VALID,0.100563,VALID,25.0644,VALID,352,VALID,0,
2011-06-25, 00:08:05,VALID,1004.63,VALID,0,INVALID,163.67,VALID,0,VALID,25.0041,VALID,351,VALID,0,
2011-06-25, 00:09:05,VALID,1004.61,VALID,0,INVALID,163.662,VALID,0,VALID,24.9847,VALID,356,VALID,0,
2011-06-25, 00:10:05,VALID,1004.6,VALID,0,INVALID,163.655,VALID,0.100563,VALID,24.9671,VALID,2,VALID,0,
2011-06-25, 00:11:05,VALID,1004.61,VALID,0,INVALID,163.67,VALID,0.100563,VALID,24.9263,VALID,348,VALID,0,
2011-06-25, 00:12:05,VALID,1004.6,VALID,0,INVALID,163.678,VALID,0.100563,VALID,24.9282,VALID,343,VALID,0,
2011-06-25, 00:13:05,VALID,1004.59,VALID,0,INVALID,163.701,VALID,0,VALID,24.8892,VALID,354,VALID,0,
2011-06-25, 00:14:05,VALID,1004.59,VALID,0,INVALID,163.685,VALID,0,VALID,24.8892,VALID,347,VALID,0,
2011-06-25, 00:15:05,VALID,1004.58,VALID,0,INVALID,163.685,VALID,0,VALID,24.8697,VALID,355,VALID,0,
2011-06-25, 00:16:05,VALID,1004.58,VALID,0,INVALID,163.708,VALID,0,VALID,24.8095,VALID,348,VALID,0,
2011-06-25, 00:17:05,VALID,1004.58,VALID,0,INVALID,163.716,VALID,0,VALID,24.7705,VALID,19,VALID,0,
2011-06-25, 00:18:05,VALID,1004.61,VALID,0,INVALID,163.685,VALID,0,VALID,24.7529,VALID,345,VALID,0,
2011-06-25, 00:19:05,VALID,1004.58,VALID,0,INVALID,163.693,VALID,0,VALID,24.7335,VALID,360,VALID,0,
2011-06-25, 00:20:05,VALID,1004.54,VALID,0,INVALID,163.693,VALID,0.100563,VALID,24.6945,VALID,342,VALID,0,
2011-06-25, 00:21:05,VALID,1004.53,VALID,0,INVALID,163.708,VALID,0.100563,VALID,24.6945,VALID,1,VALID,0,
2011-06-25, 00:22:05,VALID,1004.51,VALID,0,INVALID,163.693,VALID,0,VALID,24.6361,VALID,355,VALID,0,
2011-06-25, 00:23:05,VALID,1004.45,VALID,0,INVALID,163.67,VALID,0,VALID,24.5953,VALID,343,VALID,0,
2011-06-25, 00:24:05,VALID,1004.44,VALID,0,INVALID,163.701,VALID,0,VALID,24.5972,VALID,340,VALID,0,
2011-06-25, 00:25:05,VALID,1004.43,VALID,0,INVALID,163.723,VALID,0,VALID,24.5582,VALID,349,VALID,0,
2011-06-25, 00:26:05,VALID,1004.42,VALID,0,INVALID,163.693,VALID,0,VALID,24.5388,VALID,350,VALID,0,
2011-06-25, 00:27:05,VALID,1004.41,VALID,0,INVALID,163.701,VALID,0,VALID,24.5193,VALID,343,VALID,0,
2011-06-25, 00:28:05,VALID,1004.37,VALID,0,INVALID,163.746,VALID,0,VALID,24.5193,VALID,354,VALID,0,
2011-06-25, 00:29:05,VALID,1004.35,VALID,0,INVALID,163.678,VALID,0,VALID,24.5193,VALID,353,VALID,0,
2011-06-25, 00:30:05,VALID,1004.39,VALID,0,INVALID,163.716,VALID,0,VALID,24.5193,VALID,2,VALID,0,
2011-06-25, 00:31:05,VALID,1004.37,VALID,0,INVALID,163.731,VALID,0.100563,VALID,24.498,VALID,354,VALID,0,
2011-06-25, 00:32:05,VALID,1004.37,VALID,0,INVALID,163.701,VALID,0,VALID,24.4998,VALID,354,VALID,0,
2011-06-25, 00:33:05,VALID,1004.39,VALID,0,INVALID,163.708,VALID,0,VALID,24.498,VALID,347,VALID,0,
2011-06-25, 00:34:05,VALID,1004.39,VALID,0,INVALID,163.708,VALID,0.100563,VALID,24.5193,VALID,6,VALID,0,
2011-06-25, 00:35:05,VALID,1004.39,VALID,0,INVALID,163.716,VALID,0.100563,VALID,24.4785,VALID,360,VALID,0,
2011-06-25, 00:36:05,VALID,1004.37,VALID,0,INVALID,163.701,VALID,0.100563,VALID,24.5388,VALID,355,VALID,0,
2011-06-25, 00:37:05,VALID,1004.39,VALID,0,INVALID,163.693,VALID,0,VALID,24.5174,VALID,1,VALID,0,
2011-06-25, 00:38:05,VALID,1004.38,VALID,0,INVALID,163.701,VALID,0.100563,VALID,24.5582,VALID,356,VALID,0,
2011-06-25, 00:39:05,VALID,1004.41,VALID,0,INVALID,163.723,VALID,0,VALID,24.5582,VALID,354,VALID,0,
2011-06-25, 00:40:05,VALID,1004.37,VALID,0,INVALID,163.723,VALID,0.100563,VALID,24.5369,VALID,347,VALID,0,
2011-06-25, 00:41:05,VALID,1004.38,VALID,0,INVALID,163.723,VALID,0,VALID,24.5582,VALID,6,VALID,0,
2011-06-25, 00:42:05,VALID,1004.4,VALID,0,INVALID,163.731,VALID,0,VALID,24.5601,VALID,17,VALID,0,
2011-06-25, 00:43:05,VALID,1004.41,VALID,0,INVALID,163.716,VALID,0.100563,VALID,24.5388,VALID,346,VALID,0,
2011-06-25, 00:44:05,VALID,1004.37,VALID,0,INVALID,163.708,VALID,0.100563,VALID,24.5193,VALID,346,VALID,0,
2011-06-25, 00:45:05,VALID,1004.39,VALID,0,INVALID,163.716,VALID,0,VALID,24.5193,VALID,359,VALID,0,
2011-06-25, 00:46:05,VALID,1004.35,VALID,0,INVALID,163.716,VALID,0,VALID,24.5388,VALID,360,VALID,0,
2011-06-25, 00:47:05,VALID,1004.32,VALID,0,INVALID,163.716,VALID,0,VALID,24.5388,VALID,2,VALID,0,
2011-06-25, 00:48:05,VALID,1004.33,VALID,0,INVALID,163.731,VALID,0,VALID,24.5564,VALID,352,VALID,0,
2011-06-25, 00:49:05,VALID,1004.29,VALID,0,INVALID,163.708,VALID,0.100563,VALID,24.5972,VALID,2,VALID,0,
2011-06-25, 00:50:05,VALID,1004.27,VALID,0,INVALID,163.701,VALID,0,VALID,24.6166,VALID,359,VALID,0,
2011-06-25, 00:51:05,VALID,1004.24,VALID,0,INVALID,163.708,VALID,0.100563,VALID,24.6732,VALID,356,VALID,0,
2011-06-25, 00:52:05,VALID,1004.25,VALID,0,INVALID,163.678,VALID,0.100563,VALID,24.714,VALID,357,VALID,0,
2011-06-25, 00:53:05,VALID,1004.25,VALID,0,INVALID,163.708,VALID,0,VALID,24.7335,VALID,351,VALID,0,
2011-06-25, 00:54:05,VALID,1004.21,VALID,0,INVALID,163.678,VALID,0.100563,VALID,24.7121,VALID,358,VALID,0,
2011-06-25, 00:55:05,VALID,1004.2,VALID,0,INVALID,163.701,VALID,0,VALID,24.6945,VALID,352,VALID,0,
2011-06-25, 00:56:05,VALID,1004.21,VALID,0,INVALID,163.693,VALID,0.100563,VALID,24.6556,VALID,355,VALID,0,
2011-06-25, 00:57:05,VALID,1004.14,VALID,0,INVALID,163.723,VALID,0.100563,VALID,24.6166,VALID,349,VALID,0,
2011-06-25, 00:58:05,VALID,1004.19,VALID,0,INVALID,163.746,VALID,0.100563,VALID,24.5369,VALID,351,VALID,0,
2011-06-25, 00:59:05,VALID,1004.15,VALID,0,INVALID,163.701,VALID,0,VALID,24.5193,VALID,347,VALID,0,
2011-06-25, 01:00:05,VALID,1004.16,VALID,0,INVALID,163.723,VALID,0,VALID,24.4998,VALID,4,VALID,0,
2011-06-25, 01:01:05,VALID,1004.11,VALID,0,INVALID,163.739,VALID,0,VALID,24.459,VALID,17,VALID,0,
2011-06-25, 01:02:05,VALID,1004.17,VALID,0,INVALID,163.762,VALID,0,VALID,24.4998,VALID,351,VALID,0,
2011-06-25, 01:03:05,VALID,1004.16,VALID,0,INVALID,163.731,VALID,0,VALID,24.4804,VALID,5,VALID,0,
2011-06-25, 01:04:05,VALID,1004.15,VALID,0,INVALID,163.731,VALID,0,VALID,24.4609,VALID,14,VALID,0,
2011-06-25, 01:05:05,VALID,1004.15,VALID,0,INVALID,163.723,VALID,0.100563,VALID,24.4201,VALID,352,VALID,0,
2011-06-25, 01:06:05,VALID,1004.11,VALID,0,INVALID,163.731,VALID,0.100563,VALID,24.4414,VALID,13,VALID,0,
2011-06-25, 01:07:05,VALID,1004.15,VALID,0,INVALID,163.678,VALID,0,VALID,24.422,VALID,9,VALID,0,
2011-06-25, 01:08:05,VALID,1004.16,VALID,0,INVALID,163.769,VALID,0,VALID,24.4025,VALID,349,VALID,0,
2011-06-25, 01:09:05,VALID,1004.13,VALID,0,INVALID,163.746,VALID,0,VALID,24.3636,VALID,356,VALID,0,
2011-06-25, 01:10:05,VALID,1004.16,VALID,0,INVALID,163.762,VALID,0,VALID,24.3422,VALID,3,VALID,0,
2011-06-25, 01:11:05,VALID,1004.14,VALID,0,INVALID,163.716,VALID,0,VALID,24.3441,VALID,356,VALID,0,
2011-06-25, 01:12:05,VALID,1004.16,VALID,0,INVALID,163.716,VALID,0,VALID,24.3441,VALID,16,VALID,0,
2011-06-25, 01:13:05,VALID,1004.16,VALID,0,INVALID,163.723,VALID,0,VALID,24.3441,VALID,6,VALID,0,
2011-06-25, 01:14:05,VALID,1004.16,VALID,0,INVALID,163.731,VALID,0,VALID,24.3441,VALID,348,VALID,0,
2011-06-25, 01:15:05,VALID,1004.18,VALID,0,INVALID,163.746,VALID,0.100563,VALID,24.3228,VALID,360,VALID,0,
2011-06-25, 01:16:05,VALID,1004.16,VALID,0,INVALID,163.739,VALID,0.100563,VALID,24.3441,VALID,359,VALID,0,
2011-06-25, 01:17:05,VALID,1004.17,VALID,0,INVALID,163.762,VALID,0,VALID,24.3441,VALID,357,VALID,0,
2011-06-25, 01:18:05,VALID,1004.15,VALID,0,INVALID,163.731,VALID,0,VALID,24.3246,VALID,356,VALID,0,
2011-06-25, 01:19:05,VALID,1004.17,VALID,0,INVALID,163.746,VALID,0,VALID,24.3422,VALID,346,VALID,0,
2011-06-25, 01:20:05,VALID,1004.15,VALID,0,INVALID,163.731,VALID,0,VALID,24.3636,VALID,356,VALID,0,
2011-06-25, 01:21:05,VALID,1004.17,VALID,0,INVALID,163.731,VALID,0,VALID,24.3617,VALID,347,VALID,0,
2011-06-25, 01:22:05,VALID,1004.16,VALID,0,INVALID,163.716,VALID,0,VALID,24.383,VALID,359,VALID,0,
2011-06-25, 01:23:05,VALID,1004.14,VALID,0,INVALID,163.731,VALID,0,VALID,24.383,VALID,9,VALID,0,
2011-06-25, 01:24:05,VALID,1004.1,VALID,0,INVALID,163.762,VALID,0.100563,VALID,24.4025,VALID,360,VALID,0,
2011-06-25, 01:25:05,VALID,1004.11,VALID,0,INVALID,163.746,VALID,0,VALID,24.3617,VALID,1,VALID,0,
2011-06-25, 01:26:05,VALID,1004.09,VALID,0,INVALID,163.723,VALID,0,VALID,24.3617,VALID,333,VALID,0,
2011-06-25, 01:27:05,VALID,1004.06,VALID,0,INVALID,163.746,VALID,0,VALID,24.3441,VALID,334,VALID,0,
2011-06-25, 01:28:05,VALID,1004.04,VALID,0,INVALID,163.723,VALID,0.100563,VALID,24.3441,VALID,351,VALID,0,
2011-06-25, 01:29:05,VALID,1004.09,VALID,0,INVALID,163.731,VALID,0,VALID,24.3459,VALID,342,VALID,0,
2011-06-25, 01:30:05,VALID,1004.08,VALID,0,INVALID,163.739,VALID,0,VALID,24.3033,VALID,353,VALID,0,
2011-06-25, 01:31:05,VALID,1004.05,VALID,0,INVALID,163.723,VALID,0,VALID,24.3228,VALID,351,VALID,0,
2011-06-25, 01:32:05,VALID,1004.06,VALID,0,INVALID,163.739,VALID,0,VALID,24.3246,VALID,317,VALID,0,
2011-06-25, 01:33:05,VALID,1004.03,VALID,0,INVALID,163.754,VALID,0.100563,VALID,24.3441,VALID,351,VALID,0,
2011-06-25, 01:34:05,VALID,1004.07,VALID,0,INVALID,163.723,VALID,0,VALID,24.3422,VALID,335,VALID,0,
2011-06-25, 01:35:05,VALID,1004.02,VALID,0,INVALID,163.701,VALID,0.100563,VALID,24.383,VALID,352,VALID,0,
2011-06-25, 01:36:05,VALID,1004.01,VALID,0,INVALID,163.723,VALID,0.100563,VALID,24.3617,VALID,357,VALID,0,
2011-06-25, 01:37:05,VALID,1003.99,VALID,0,INVALID,163.716,VALID,0.100563,VALID,24.3617,VALID,332,VALID,0,
2011-06-25, 01:38:05,VALID,1003.96,VALID,0,INVALID,163.731,VALID,0.100563,VALID,24.3617,VALID,332,VALID,0,
2011-06-25, 01:39:05,VALID,1003.94,VALID,0,INVALID,163.731,VALID,0.100563,VALID,24.3812,VALID,343,VALID,0,
2011-06-25, 01:40:05,VALID,1003.92,VALID,0,INVALID,163.708,VALID,0,VALID,24.383,VALID,318,VALID,0,
2011-06-25, 01:41:05,VALID,1003.93,VALID,0,INVALID,163.731,VALID,0.100563,VALID,24.383,VALID,9,VALID,0,
2011-06-25, 01:42:05,VALID,1003.93,VALID,0,INVALID,163.746,VALID,0.100563,VALID,24.383,VALID,343,VALID,0,
2011-06-25, 01:43:05,VALID,1003.9,VALID,0,INVALID,163.723,VALID,0.100563,VALID,24.3812,VALID,301,VALID,0,
2011-06-25, 01:44:05,VALID,1003.88,VALID,0,INVALID,163.746,VALID,0.100563,VALID,24.3812,VALID,290,VALID,0,
2011-06-25, 01:45:05,VALID,1003.87,VALID,0,INVALID,163.739,VALID,0.100563,VALID,24.422,VALID,342,VALID,0,
2011-06-25, 01:46:05,VALID,1003.88,VALID,0,INVALID,163.731,VALID,0,VALID,24.4414,VALID,305,VALID,0,
2011-06-25, 01:47:05,VALID,1003.86,VALID,0,INVALID,163.716,VALID,0.100563,VALID,24.4201,VALID,360,VALID,0,
2011-06-25, 01:48:05,VALID,1003.85,VALID,0,INVALID,163.723,VALID,0.100563,VALID,24.4609,VALID,339,VALID,0,
2011-06-25, 01:49:05,VALID,1003.84,VALID,0,INVALID,163.716,VALID,0.100563,VALID,24.4414,VALID,350,VALID,0,
2011-06-25, 01:50:05,VALID,1003.82,VALID,0,INVALID,163.693,VALID,0,VALID,24.4414,VALID,346,VALID,0,
2011-06-25, 01:51:05,VALID,1003.82,VALID,0,INVALID,163.746,VALID,0.100563,VALID,24.4006,VALID,355,VALID,0,
2011-06-25, 01:52:05,VALID,1003.83,VALID,0,INVALID,163.731,VALID,0,VALID,24.422,VALID,345,VALID,0,
2011-06-25, 01:53:05,VALID,1003.78,VALID,0,INVALID,163.731,VALID,0,VALID,24.422,VALID,354,VALID,0,
2011-06-25, 01:54:05,VALID,1003.79,VALID,0,INVALID,163.731,VALID,0,VALID,24.4201,VALID,346,VALID,0,
2011-06-25, 01:55:05,VALID,1003.77,VALID,0,INVALID,163.723,VALID,0.100563,VALID,24.4414,VALID,350,VALID,0,
2011-06-25, 01:56:05,VALID,1003.78,VALID,0,INVALID,163.739,VALID,0.100563,VALID,24.4804,VALID,356,VALID,0,
2011-06-25, 01:57:05,VALID,1003.76,VALID,0,INVALID,163.716,VALID,0.100563,VALID,24.5193,VALID,351,VALID,0,
2011-06-25, 01:58:05,VALID,1003.75,VALID,0,INVALID,163.678,VALID,0,VALID,24.5369,VALID,359,VALID,0,
2011-06-25, 01:59:05,VALID,1003.75,VALID,0,INVALID,163.701,VALID,0,VALID,24.5564,VALID,348,VALID,0,
2011-06-25, 02:00:05,VALID,1003.73,VALID,0,INVALID,163.708,VALID,0,VALID,24.5777,VALID,344,VALID,0,
2011-06-25, 02:01:05,VALID,1003.72,VALID,0,INVALID,163.708,VALID,0,VALID,24.5777,VALID,358,VALID,0,
2011-06-25, 02:02:05,VALID,1003.65,VALID,0,INVALID,163.708,VALID,0,VALID,24.5777,VALID,357,VALID,0,
2011-06-25, 02:03:05,VALID,1003.63,VALID,0,INVALID,163.701,VALID,0,VALID,24.638,VALID,356,VALID,0,
2011-06-25, 02:04:05,VALID,1003.63,VALID,0,INVALID,163.723,VALID,0,VALID,24.6166,VALID,3,VALID,0,
2011-06-25, 02:05:05,VALID,1003.64,VALID,0,INVALID,163.693,VALID,0,VALID,24.6361,VALID,345,VALID,0,
2011-06-25, 02:06:05,VALID,1003.61,VALID,0,INVALID,163.685,VALID,0,VALID,24.5972,VALID,351,VALID,0,
2011-06-25, 02:07:05,VALID,1003.66,VALID,0,INVALID,163.708,VALID,0,VALID,24.6148,VALID,331,VALID,0,
2011-06-25, 02:08:05,VALID,1003.66,VALID,0,INVALID,163.693,VALID,0,VALID,24.6148,VALID,332,VALID,0,
2011-06-25, 02:09:05,VALID,1003.64,VALID,0,INVALID,163.693,VALID,0,VALID,24.6361,VALID,347,VALID,0,
2011-06-25, 02:10:05,VALID,1003.69,VALID,0,INVALID,163.693,VALID,0,VALID,24.6342,VALID,15,VALID,0,
2011-06-25, 02:11:05,VALID,1003.7,VALID,0,INVALID,163.685,VALID,0,VALID,24.6537,VALID,349,VALID,0,
2011-06-25, 02:12:05,VALID,1003.7,VALID,0,INVALID,163.678,VALID,0,VALID,24.6926,VALID,355,VALID,0,
2011-06-25, 02:13:05,VALID,1003.7,VALID,0,INVALID,163.685,VALID,0,VALID,24.6945,VALID,4,VALID,0,
2011-06-25, 02:14:05,VALID,1003.71,VALID,0,INVALID,163.693,VALID,0,VALID,24.6945,VALID,341,VALID,0,
2011-06-25, 02:15:05,VALID,1003.71,VALID,0,INVALID,163.701,VALID,0,VALID,24.6945,VALID,332,VALID,0,
2011-06-25, 02:16:05,VALID,1003.71,VALID,0,INVALID,163.693,VALID,0,VALID,24.6732,VALID,347,VALID,0,
2011-06-25, 02:17:05,VALID,1003.7,VALID,0,INVALID,163.708,VALID,0,VALID,24.6556,VALID,335,VALID,0,
2011-06-25, 02:18:05,VALID,1003.69,VALID,0,INVALID,163.701,VALID,0,VALID,24.6769,VALID,349,VALID,0,
2011-06-25, 02:19:05,VALID,1003.71,VALID,0,INVALID,163.685,VALID,0,VALID,24.6556,VALID,321,VALID,0,
2011-06-25, 02:20:05,VALID,1003.71,VALID,0,INVALID,163.708,VALID,0,VALID,24.6361,VALID,349,VALID,0,
2011-06-25, 02:21:05,VALID,1003.71,VALID,0,INVALID,163.701,VALID,0,VALID,24.675,VALID,349,VALID,0,
2011-06-25, 02:22:05,VALID,1003.69,VALID,0,INVALID,163.708,VALID,0,VALID,24.6342,VALID,340,VALID,0,
2011-06-25, 02:23:05,VALID,1003.71,VALID,0,INVALID,163.693,VALID,0,VALID,24.6556,VALID,339,VALID,0,
2011-06-25, 02:24:05,VALID,1003.69,VALID,0,INVALID,163.685,VALID,0,VALID,24.6148,VALID,338,VALID,0,
2011-06-25, 02:25:05,VALID,1003.69,VALID,0,INVALID,163.685,VALID,0,VALID,24.675,VALID,353,VALID,0,
2011-06-25, 02:26:04,VALID,1003.66,VALID,0,INVALID,163.739,VALID,0,VALID,24.6342,VALID,352,VALID,0,
2011-06-25, 02:27:04,VALID,1003.64,VALID,0,INVALID,163.678,VALID,0,VALID,24.7159,VALID,348,VALID,0,
2011-06-25, 02:28:04,VALID,1003.64,VALID,0,INVALID,163.693,VALID,0,VALID,24.675,VALID,356,VALID,0,
2011-06-25, 02:29:04,VALID,1003.62,VALID,0,INVALID,163.701,VALID,0,VALID,24.6556,VALID,345,VALID,0,
2011-06-25, 02:30:04,VALID,1003.63,VALID,0,INVALID,163.716,VALID,0,VALID,24.6361,VALID,350,VALID,0,
2011-06-25, 02:31:04,VALID,1003.6,VALID,0,INVALID,163.708,VALID,0,VALID,24.6166,VALID,360,VALID,0,
2011-06-25, 02:32:04,VALID,1003.57,VALID,0,INVALID,163.731,VALID,0,VALID,24.5758,VALID,348,VALID,0,
2011-06-25, 02:33:04,VALID,1003.55,VALID,0,INVALID,163.693,VALID,0,VALID,24.5564,VALID,347,VALID,0,
2011-06-25, 02:34:04,VALID,1003.54,VALID,0,INVALID,163.708,VALID,0,VALID,24.5758,VALID,347,VALID,0,
2011-06-25, 02:35:04,VALID,1003.55,VALID,0,INVALID,163.716,VALID,0,VALID,24.5777,VALID,346,VALID,0,
2011-06-25, 02:36:04,VALID,1003.54,VALID,0,INVALID,163.708,VALID,0,VALID,24.6185,VALID,339,VALID,0,
2011-06-25, 02:37:04,VALID,1003.54,VALID,0,INVALID,163.701,VALID,0,VALID,24.5972,VALID,345,VALID,0,
2011-06-25, 02:38:04,VALID,1003.54,VALID,0,INVALID,163.701,VALID,0,VALID,24.5972,VALID,2,VALID,0,
2011-06-25, 02:39:04,VALID,1003.53,VALID,0,INVALID,163.723,VALID,0,VALID,24.6166,VALID,1,VALID,0,
2011-06-25, 02:40:04,VALID,1003.52,VALID,0,INVALID,163.678,VALID,0.100563,VALID,24.6769,VALID,3,VALID,0,
2011-06-25, 02:41:04,VALID,1003.52,VALID,0,INVALID,163.685,VALID,0,VALID,24.675,VALID,357,VALID,0,
2011-06-25, 02:42:04,VALID,1003.5,VALID,0,INVALID,163.708,VALID,0,VALID,24.6945,VALID,344,VALID,0,
2011-06-25, 02:43:04,VALID,1003.49,VALID,0,INVALID,163.67,VALID,0,VALID,24.7121,VALID,333,VALID,0,
2011-06-25, 02:44:04,VALID,1003.45,VALID,0,INVALID,163.685,VALID,0.100563,VALID,24.7724,VALID,2,VALID,0,
2011-06-25, 02:45:04,VALID,1003.44,VALID,0,INVALID,155.499,VALID,0,VALID,24.7529,VALID,349,VALID,0,
2011-06-25, 02:46:04,VALID,1003.41,VALID,0,INVALID,132.437,VALID,0,VALID,24.7919,VALID,348,VALID,0,
2011-06-25, 02:47:04,VALID,1003.39,VALID,0,INVALID,130.011,VALID,0,VALID,24.8308,VALID,340,VALID,0,
2011-06-25, 02:48:04,VALID,1003.37,VALID,0,INVALID,126.144,VALID,0,VALID,24.8892,VALID,350,VALID,0,
2011-06-25, 02:49:04,VALID,1003.37,VALID,0,INVALID,123.863,VALID,0,VALID,24.8697,VALID,351,VALID,0,
2011-06-25, 02:50:04,VALID,1003.37,VALID,0,INVALID,127.692,VALID,0,VALID,24.8892,VALID,350,VALID,0,
2011-06-25, 02:51:04,VALID,1003.35,VALID,0,INVALID,132.086,VALID,0,VALID,24.8911,VALID,350,VALID,0,
2011-06-25, 02:52:04,VALID,1003.35,VALID,0,INVALID,138.884,VALID,0,VALID,24.8503,VALID,350,VALID,0,
2011-06-25, 02:53:04,VALID,1003.33,VALID,0,INVALID,136.908,VALID,0,VALID,24.8308,VALID,350,VALID,0,
2011-06-25, 02:54:04,VALID,1003.33,VALID,0,INVALID,142.05,VALID,0,VALID,24.8113,VALID,350,VALID,0,
2011-06-25, 02:55:04,VALID,1003.37,VALID,0,INVALID,150.426,VALID,0,VALID,24.8113,VALID,350,VALID,0,
2011-06-25, 02:56:04,VALID,1003.33,VALID,0,INVALID,154.05,VALID,0.100563,VALID,24.7937,VALID,352,VALID,0,
2011-06-25, 02:57:04,VALID,1003.32,VALID,0,INVALID,156.476,VALID,0.100563,VALID,24.7724,VALID,341,VALID,0,
2011-06-25, 02:58:04,VALID,1003.3,VALID,0,INVALID,152.883,VALID,0,VALID,24.7529,VALID,331,VALID,0,
2011-06-25, 02:59:04,VALID,1003.32,VALID,0,INVALID,125.747,VALID,0,VALID,24.8113,VALID,352,VALID,0,
2011-06-25, 03:00:04,VALID,1003.31,VALID,0,INVALID,123.588,VALID,0,VALID,24.8697,VALID,345,VALID,0,
2011-06-25, 03:01:04,VALID,1003.28,VALID,0,INVALID,127.173,VALID,0,VALID,24.8892,VALID,353,VALID,0,
2011-06-25, 03:02:04,VALID,1003.28,VALID,0,INVALID,134.795,VALID,0,VALID,24.8503,VALID,339,VALID,0,
2011-06-25, 03:03:04,VALID,1003.28,VALID,0,INVALID,134.65,VALID,0,VALID,24.8113,VALID,15,VALID,0,
2011-06-25, 03:04:04,VALID,1003.23,VALID,0,INVALID,132.773,VALID,0,VALID,24.8113,VALID,1,VALID,0,
2011-06-25, 03:05:04,VALID,1003.25,VALID,0,INVALID,140.15,VALID,0,VALID,24.7919,VALID,357,VALID,0,
2011-06-25, 03:06:04,VALID,1003.22,VALID,0,INVALID,145.544,VALID,0,VALID,24.7724,VALID,354,VALID,0,
2011-06-25, 03:07:04,VALID,1003.2,VALID,0,INVALID,150.396,VALID,0,VALID,24.7529,VALID,347,VALID,0,
2011-06-25, 03:08:04,VALID,1003.2,VALID,0,INVALID,160.992,VALID,0,VALID,24.7529,VALID,278,VALID,0,
2011-06-25, 03:09:04,VALID,1003.18,VALID,0,INVALID,163.594,VALID,0,VALID,24.7335,VALID,349,VALID,0,
2011-06-25, 03:10:04,VALID,1003.19,VALID,0,INVALID,163.647,VALID,0,VALID,24.6945,VALID,350,VALID,0,
2011-06-25, 03:11:04,VALID,1003.15,VALID,0,INVALID,163.662,VALID,0,VALID,24.6945,VALID,349,VALID,0,
2011-06-25, 03:12:04,VALID,1003.12,VALID,0,INVALID,163.693,VALID,0,VALID,24.6964,VALID,356,VALID,0,
2011-06-25, 03:13:04,VALID,1003.14,VALID,0,INVALID,163.67,VALID,0,VALID,24.6556,VALID,355,VALID,0,
2011-06-25, 03:14:04,VALID,1003.11,VALID,0,INVALID,163.678,VALID,0,VALID,24.6361,VALID,352,VALID,0,
2011-06-25, 03:15:04,VALID,1003.11,VALID,0,INVALID,163.678,VALID,0,VALID,24.6166,VALID,353,VALID,0,
2011-06-25, 03:16:04,VALID,1003.1,VALID,0,INVALID,163.693,VALID,0,VALID,24.5972,VALID,355,VALID,0,
2011-06-25, 03:17:04,VALID,1003.08,VALID,0,INVALID,163.693,VALID,0,VALID,24.5777,VALID,355,VALID,0,
2011-06-25, 03:18:04,VALID,1003.11,VALID,0,INVALID,163.708,VALID,0,VALID,24.5777,VALID,1,VALID,0,
2011-06-25, 03:19:04,VALID,1003.08,VALID,0,INVALID,163.701,VALID,0,VALID,24.5777,VALID,360,VALID,0,
2011-06-25, 03:20:04,VALID,1003.03,VALID,0,INVALID,163.708,VALID,0,VALID,24.5388,VALID,350,VALID,0,
2011-06-25, 03:21:04,VALID,1003.03,VALID,0,INVALID,163.708,VALID,0,VALID,24.5601,VALID,357,VALID,0,
2011-06-25, 03:22:04,VALID,1003,VALID,0,INVALID,163.716,VALID,0,VALID,24.5193,VALID,354,VALID,0,
2011-06-25, 03:23:04,VALID,1003,VALID,0,INVALID,163.701,VALID,0,VALID,24.5796,VALID,354,VALID,0,
2011-06-25, 03:24:04,VALID,1002.98,VALID,0,INVALID,163.708,VALID,0,VALID,24.5777,VALID,336,VALID,0,
2011-06-25, 03:25:04,VALID,1002.96,VALID,0,INVALID,163.708,VALID,0,VALID,24.5564,VALID,345,VALID,0,
2011-06-25, 03:26:04,VALID,1002.97,VALID,0,INVALID,163.701,VALID,0,VALID,24.5582,VALID,352,VALID,0,
2011-06-25, 03:27:04,VALID,1002.98,VALID,0,INVALID,163.701,VALID,0,VALID,24.5777,VALID,352,VALID,0,
2011-06-25, 03:28:04,VALID,1003.03,VALID,0,INVALID,163.693,VALID,0,VALID,24.5582,VALID,352,VALID,0,
2011-06-25, 03:29:04,VALID,1003.05,VALID,0,INVALID,163.708,VALID,0,VALID,24.5388,VALID,9,VALID,0,
2011-06-25, 03:30:04,VALID,1003.09,VALID,0,INVALID,163.723,VALID,0,VALID,24.4998,VALID,1,VALID,0,
2011-06-25, 03:31:04,VALID,1003.09,VALID,0,INVALID,163.708,VALID,0,VALID,24.4609,VALID,2,VALID,0,
2011-06-25, 03:32:04,VALID,1003.09,VALID,0,INVALID,163.739,VALID,0,VALID,24.4414,VALID,2,VALID,0,
2011-06-25, 03:33:04,VALID,1003.09,VALID,0,INVALID,163.746,VALID,0,VALID,24.383,VALID,33,VALID,0,
2011-06-25, 03:34:04,VALID,1003.08,VALID,0,INVALID,163.731,VALID,0,VALID,24.3636,VALID,79,VALID,0,
2011-06-25, 03:35:04,VALID,1003.09,VALID,0,INVALID,163.701,VALID,0,VALID,24.3228,VALID,79,VALID,0,
2011-06-25, 03:36:04,VALID,1003.06,VALID,0,INVALID,163.731,VALID,0,VALID,24.3246,VALID,79,VALID,0,
2011-06-25, 03:37:04,VALID,1003.04,VALID,0,INVALID,163.701,VALID,0,VALID,24.3052,VALID,79,VALID,0,
2011-06-25, 03:38:04,VALID,1003,VALID,0,INVALID,163.731,VALID,0,VALID,24.307,VALID,79,VALID,0,
2011-06-25, 03:39:04,VALID,1003.02,VALID,0,INVALID,163.769,VALID,0,VALID,24.2857,VALID,79,VALID,0,
2011-06-25, 03:40:04,VALID,1003.04,VALID,0,INVALID,163.731,VALID,0,VALID,24.2875,VALID,79,VALID,0,
2011-06-25, 03:41:04,VALID,1003.06,VALID,0,INVALID,163.754,VALID,0,VALID,24.2662,VALID,79,VALID,0,
2011-06-25, 03:42:04,VALID,1003.08,VALID,0,INVALID,163.716,VALID,0,VALID,24.2468,VALID,79,VALID,0,
2011-06-25, 03:43:04,VALID,1003.09,VALID,0,INVALID,163.731,VALID,0,VALID,24.2273,VALID,79,VALID,0,
2011-06-25, 03:44:04,VALID,1003.08,VALID,0,INVALID,163.746,VALID,0,VALID,24.2078,VALID,79,VALID,0,
2011-06-25, 03:45:04,VALID,1003.08,VALID,0,INVALID,163.731,VALID,0,VALID,24.1671,VALID,79,VALID,0,
2011-06-25, 03:46:04,VALID,1003.08,VALID,0,INVALID,163.754,VALID,0,VALID,24.1884,VALID,79,VALID,0,
2011-06-25, 03:47:04,VALID,1003.08,VALID,0,INVALID,163.731,VALID,0,VALID,24.1884,VALID,79,VALID,0,
2011-06-25, 03:48:04,VALID,1003.04,VALID,0,INVALID,163.723,VALID,0,VALID,24.1689,VALID,79,VALID,0,
2011-06-25, 03:49:04,VALID,1003.04,VALID,0,INVALID,163.701,VALID,0,VALID,24.1494,VALID,79,VALID,0,
2011-06-25, 03:50:04,VALID,1003.06,VALID,0,INVALID,163.769,VALID,0,VALID,24.13,VALID,79,VALID,0,
2011-06-25, 03:51:04,VALID,1003.08,VALID,0,INVALID,163.754,VALID,0,VALID,24.1105,VALID,79,VALID,0,
2011-06-25, 03:52:04,VALID,1003.08,VALID,0,INVALID,163.746,VALID,0,VALID,24.091,VALID,79,VALID,0,